Location: Unspecified
(47.7670°N, 8.8522°E)
Time: 07:23:22
(UTC+01:00)

N. Korean satellite - Visible Passes

Search period start: 09 December 2022 00:00
Search period end: 19 December 2022 00:00
Orbit: 420 x 452 km, 97.3° (Epoch: 08 December)

Date Brightness Start Highest point End Pass type
(mag) Time Alt. Az. Time Alt. Az. Time Alt. Az.
09 Dec 6.3 05:51:52 10° NNE 05:55:16 88° ESE 05:58:37 10° SSW visible
09 Dec 9.8 17:58:20 10° WSW 18:00:04 13° W 18:01:50 10° WNW visible
10 Dec 8.5 05:13:07 10° NE 05:16:03 27° E 05:18:56 10° SSE visible
10 Dec 7.7 06:45:49 10° NNW 06:48:24 21° WNW 06:50:58 10° WSW visible
10 Dec 8.2 17:17:29 10° SSW 17:20:41 37° W 17:23:54 10° NNW visible
11 Dec 6.3 06:06:06 10° N 06:09:26 60° WNW 06:12:43 10° SSW visible
12 Dec 7.7 05:27:00 10° NNE 05:30:12 40° E 05:33:21 10° S visible
12 Dec 8.1 07:00:25 10° NNW 07:02:22 15° WNW 07:04:19 10° W visible
12 Dec 9.0 17:31:54 10° SSW 17:34:48 25° W 17:37:42 10° NW visible
13 Dec 9.6 04:48:52 10° ENE 04:50:42 14° E 04:52:30 10° SE visible
13 Dec 6.8 06:20:13 10° N 06:23:23 39° WNW 06:26:30 10° SW visible
14 Dec 7.0 05:40:47 10° NNE 05:44:41 51° SSE 05:47:24 10° S visible
14 Dec8.607:18:05W07:18:05W07:14:55NWvisible
14 Dec 9.5 17:46:20 10° SW 17:48:44 18° W 17:51:09 10° NW visible
15 Dec 9.1 05:05:39 17° ESE 05:05:39 17° ESE 05:07:05 10° SE visible
15 Dec 8.2 06:34:13 10° N 06:39:03 16° WSW 06:39:56 10° SW visible
15 Dec 7.4 17:05:51 10° S 17:09:10 53° W 17:12:31 10° NNW visible
16 Dec 8.0 05:59:46 23° SSW 05:59:46 23° SSW 06:01:07 10° SSW visible
16 Dec 9.8 18:00:57 10° WSW 18:02:30 13° W 18:04:05 10° WNW visible
17 Dec 9.0 05:20:22 15° SSE 05:20:22 15° SSE 05:21:10 10° SSE visible
17 Dec9.106:53:45WSW06:53:45WSW06:47:24NNWvisible
17 Dec 8.3 17:19:37 10° SSW 17:22:46 35° W 17:25:57 10° NNW visible
18 Dec 8.7 06:14:13 12° SSW 06:14:13 12° SSW 06:14:32 10° SSW visible
